Terug naar catalogus

THOR ABLESTAR DEB

ActiefLEO
NORAD 656·DEBRIS·🇺🇸 United States

Gelanceerd Jun 29, 1961 vanaf Cape Canaveral Space Force Station

Loading…

Volgende Passages (komende 24 uur)

TLE

VersSource: Space-Track

Epoch: Sep 14, 2026, 03:31 UTC

1 00656U 61015HH  26257.14700107 -.00001182  00000-0 -22769-2 0  9994
2 00656  66.2917  21.8807 0651894  78.8817 288.4742 12.73084388978326

Volg THOR ABLESTAR DEB in realtime met AllMySat

Download on the App Store